TimeEDT,TemperatureF,Dew PointF,Humidity,Sea Level PressureIn,VisibilityMPH,Wind Direction,Wind SpeedMPH,Gust SpeedMPH,PrecipitationIn,Events,Conditions,WindDirDegrees,DateUTC
12:30 AM,46.4,46.4,100,29.91,10.0,NE,4.6,-,N/A,,Overcast,50,2012-09-30 04:30:00
12:39 AM,46.4,46.4,100,29.91,10.0,NE,4.6,-,N/A,,Overcast,50,2012-09-30 04:39:00
12:51 AM,46.9,46.0,97,29.93,9.0,ENE,4.6,-,N/A,,Overcast,60,2012-09-30 04:51:00
1:05 AM,46.4,46.4,100,29.91,6.0,ENE,4.6,-,N/A,,Overcast,60,2012-09-30 05:05:00
1:32 AM,46.4,46.4,100,29.91,10.0,NE,4.6,-,N/A,,Overcast,50,2012-09-30 05:32:00
1:51 AM,46.9,46.0,97,29.93,10.0,NE,3.5,-,N/A,,Overcast,40,2012-09-30 05:51:00
2:24 AM,46.4,46.4,100,29.90,10.0,NE,4.6,-,N/A,,Overcast,40,2012-09-30 06:24:00
2:51 AM,46.9,46.0,97,29.91,9.0,Calm,Calm,-,N/A,,Overcast,0,2012-09-30 06:51:00
3:03 AM,46.4,46.4,100,29.89,4.0,Calm,Calm,-,0.00,Rain,Light Rain,0,2012-09-30 07:03:00
3:18 AM,46.4,46.4,100,29.89,2.5,NE,3.5,-,0.01,Rain,Light Rain,50,2012-09-30 07:18:00
3:26 AM,46.4,46.4,100,29.89,3.0,NE,4.6,-,0.01,,Overcast,50,2012-09-30 07:26:00
3:36 AM,46.4,46.4,100,29.88,5.0,NE,3.5,-,0.01,,Overcast,40,2012-09-30 07:36:00
3:45 AM,46.4,46.4,100,29.88,7.0,NE,3.5,-,0.01,,Overcast,50,2012-09-30 07:45:00
3:51 AM,46.9,46.0,97,29.90,6.0,ENE,5.8,-,0.01,,Overcast,60,2012-09-30 07:51:00
4:17 AM,46.4,46.4,100,29.89,4.0,NE,4.6,-,0.01,Rain,Light Rain,40,2012-09-30 08:17:00
4:51 AM,46.9,46.0,97,29.90,10.0,Calm,Calm,-,0.02,,Overcast,0,2012-09-30 08:51:00
5:16 AM,46.4,46.4,100,29.88,10.0,Calm,Calm,-,N/A,,Overcast,0,2012-09-30 09:16:00
5:29 AM,46.4,46.4,100,29.88,10.0,Calm,Calm,-,N/A,,Overcast,0,2012-09-30 09:29:00
5:51 AM,46.9,46.0,97,29.90,10.0,Calm,Calm,-,N/A,,Overcast,0,2012-09-30 09:51:00
6:51 AM,46.9,46.0,97,29.90,10.0,Calm,Calm,-,N/A,,Overcast,0,2012-09-30 10:51:00
7:51 AM,46.9,46.0,97,29.89,7.0,NE,3.5,-,N/A,,Overcast,50,2012-09-30 11:51:00
8:09 AM,46.4,46.4,100,29.87,2.5,ENE,4.6,-,N/A,,Overcast,60,2012-09-30 12:09:00
8:19 AM,46.4,46.4,100,29.87,5.0,NE,3.5,-,N/A,,Overcast,40,2012-09-30 12:19:00
8:51 AM,48.0,46.9,96,29.89,9.0,ENE,3.5,-,N/A,,Overcast,60,2012-09-30 12:51:00
9:51 AM,48.0,46.9,96,29.88,4.0,ENE,5.8,-,0.01,Rain,Light Rain,60,2012-09-30 13:51:00
10:51 AM,48.9,46.9,93,29.87,10.0,ENE,4.6,-,0.00,,Overcast,60,2012-09-30 14:51:00
11:51 AM,50.0,46.9,89,29.85,10.0,NNE,3.5,-,0.00,,Overcast,30,2012-09-30 15:51:00
12:51 PM,50.0,48.0,93,29.83,10.0,North,3.5,-,N/A,,Overcast,360,2012-09-30 16:51:00
1:51 PM,50.0,48.0,93,29.79,7.0,Calm,Calm,-,0.01,Rain,Light Rain,0,2012-09-30 17:51:00
2:17 PM,50.0,48.2,94,29.78,7.0,Calm,Calm,-,0.02,Rain,Light Rain,0,2012-09-30 18:17:00
2:32 PM,50.0,48.2,94,29.77,6.0,North,3.5,-,0.02,Rain,Light Rain,360,2012-09-30 18:32:00
2:59 PM,50.0,48.2,94,29.77,3.0,Variable,3.5,-,0.01,Rain,Rain,0,2012-09-30 18:59:00
3:27 PM,50.0,48.2,94,29.76,4.0,Calm,Calm,-,0.04,Rain,Light Rain,0,2012-09-30 19:27:00
3:35 PM,50.0,48.2,94,29.76,4.0,Calm,Calm,-,0.04,Rain,Light Rain,0,2012-09-30 19:35:00
3:51 PM,50.0,48.0,93,29.76,4.0,Calm,Calm,-,0.06,Rain,Light Rain,0,2012-09-30 19:51:00
4:51 PM,48.9,48.0,97,29.75,10.0,WNW,3.5,-,0.02,,Overcast,300,2012-09-30 20:51:00
5:51 PM,48.9,46.9,93,29.74,10.0,Calm,Calm,-,0.00,,Overcast,0,2012-09-30 21:51:00
6:51 PM,48.0,46.9,96,29.73,5.0,Calm,Calm,-,N/A,,Overcast,0,2012-09-30 22:51:00
7:51 PM,48.0,46.9,96,29.72,7.0,West,3.5,-,0.01,,Overcast,280,2012-09-30 23:51:00
8:51 PM,48.0,46.9,96,29.71,7.0,SW,3.5,-,0.01,Rain,Light Rain,230,2012-10-01 00:51:00
9:51 PM,48.0,46.9,96,29.69,6.0,WSW,4.6,-,0.01,,Overcast,250,2012-10-01 01:51:00
10:27 PM,48.2,46.4,93,29.66,10.0,SW,5.8,-,0.01,,Overcast,230,2012-10-01 02:27:00
10:36 PM,48.2,46.4,93,29.66,9.0,WSW,5.8,-,0.01,Rain,Light Rain,250,2012-10-01 02:36:00
10:51 PM,46.9,46.9,100,29.67,7.0,WSW,5.8,-,0.01,Rain,Light Rain,240,2012-10-01 02:51:00
11:51 PM,46.9,46.0,97,29.65,10.0,WSW,5.8,-,0.02,Rain,Light Rain,240,2012-10-01 03:51:00